When you browse on this site, cookies collect data to enhance your experience and personalize the content and advertising you see.
Visit our Privacy Policy to learn more. By continuing to use the site, you agree to this use of cookies and data.
  • In Latvia
  • List of Countries
  • For 7 days
  • Water Temperature
  • Weather Map
  • Weather Widgets
  • user-avatar
    Login

    Hourly Weather Nowa Ruda

    Today, 27 May, Wednesday

    Time Temperature Precipitation Wind Pressure Humidity
    00:00 +8°C° 0 mm 1 mps 737 mmHg 93%
    01:00 +7°C° 0 mm 1 mps 737 mmHg 93%
    02:00 +7°C° 0 mm 1 mps 737 mmHg 94%
    03:00 +7°C° 0 mm 1 mps 737 mmHg 94%
    04:00 +7°C° 0 mm 1 mps 737 mmHg 94%
    05:00 +9°C° 0 mm 1 mps 737 mmHg 90%
    06:00 +10°C° 0 mm 2 mps 737 mmHg 86%
    07:00 +12°C° 0 mm 2 mps 737 mmHg 82%
    08:00 +14°C° 0.1 mm 2 mps 737 mmHg 76%
    09:00 +14°C° 0.1 mm 3 mps 737 mmHg 71%
    10:00 +16°C° 0.1 mm 3 mps 737 mmHg 65%
    11:00 +16°C° 0.1 mm 3 mps 737 mmHg 63%
    12:00 +17°C° 0.1 mm 3 mps 736 mmHg 62%
    13:00 +17°C° 0.1 mm 3 mps 736 mmHg 61%
    14:00 +17°C° 0.1 mm 3 mps 735 mmHg 61%
    15:00 +17°C° 0.1 mm 3 mps 735 mmHg 62%
    16:00 +17°C° 0.1 mm 3 mps 735 mmHg 62%
    17:00 +16°C° 0 mm 2 mps 734 mmHg 67%
    18:00 +15°C° 0 mm 1 mps 734 mmHg 72%
    19:00 +13°C° 0 mm 0 mps 734 mmHg 77%
    20:00 +12°C° 0 mm 1 mps 734 mmHg 79%
    21:00 +11°C° 0 mm 1 mps 733 mmHg 82%
    22:00 +10°C° 0 mm 1 mps 733 mmHg 84%
    23:00 +10°C° 0 mm 1 mps 733 mmHg 82%

    Tomorrow, 28 May, Thursday

    Time Temperature Precipitation Wind Pressure Humidity
    00:00 +10°C° 0 mm 1 mps 733 mmHg 80%
    01:00 +10°C° 0 mm 1 mps 733 mmHg 78%
    02:00 +10°C° 0.5 mm 1 mps 733 mmHg 84%
    03:00 +9°C° 0.5 mm 2 mps 733 mmHg 89%
    04:00 +9°C° 0.5 mm 2 mps 733 mmHg 95%
    05:00 +9°C° 0.3 mm 3 mps 733 mmHg 93%
    06:00 +9°C° 0.3 mm 3 mps 733 mmHg 90%
    07:00 +8°C° 0.3 mm 4 mps 733 mmHg 88%
    08:00 +10°C° 0 mm 4 mps 733 mmHg 81%
    09:00 +10°C° 0 mm 5 mps 733 mmHg 74%
    10:00 +12°C° 0 mm 5 mps 733 mmHg 67%
    11:00 +13°C° 0.1 mm 5 mps 733 mmHg 64%
    12:00 +14°C° 0.1 mm 5 mps 732 mmHg 61%
    13:00 +14°C° 0.1 mm 6 mps 732 mmHg 59%
    14:00 +14°C° 0.2 mm 6 mps 732 mmHg 62%
    15:00 +14°C° 0.2 mm 6 mps 731 mmHg 65%
    16:00 +14°C° 0.2 mm 6 mps 731 mmHg 69%
    17:00 +13°C° 0.5 mm 5 mps 731 mmHg 75%
    18:00 +12°C° 0.5 mm 4 mps 731 mmHg 81%
    19:00 +11°C° 0.5 mm 3 mps 731 mmHg 88%
    20:00 +10°C° 0.1 mm 3 mps 731 mmHg 90%
    21:00 +9°C° 0.1 mm 3 mps 731 mmHg 92%
    22:00 +8°C° 0.1 mm 3 mps 731 mmHg 94%
    23:00 +8°C° 0 mm 3 mps 731 mmHg 95%

    Day after tomorrow, 29 May, Friday

    Time Temperature Precipitation Wind Pressure Humidity
    00:00 +7°C° 0 mm 2 mps 731 mmHg 96%
    01:00 +7°C° 0 mm 2 mps 731 mmHg 97%
    02:00 +7°C° 0 mm 2 mps 731 mmHg 97%
    03:00 +5°C° 0 mm 3 mps 731 mmHg 97%
    04:00 +5°C° 0 mm 3 mps 731 mmHg 97%
    05:00 +5°C° 0 mm 3 mps 731 mmHg 95%
    06:00 +5°C° 0 mm 3 mps 731 mmHg 94%
    07:00 +7°C° 0 mm 3 mps 731 mmHg 93%
    08:00 +6°C° 0 mm 4 mps 731 mmHg 93%
    09:00 +6°C° 0 mm 4 mps 731 mmHg 92%
    10:00 +7°C° 0 mm 4 mps 731 mmHg 91%
    11:00 +8°C° 0 mm 4 mps 731 mmHg 87%
    12:00 +10°C° 0 mm 4 mps 731 mmHg 82%
    13:00 +10°C° 0 mm 5 mps 731 mmHg 77%
    14:00 +12°C° 0.1 mm 5 mps 730 mmHg 71%
    15:00 +13°C° 0.1 mm 5 mps 730 mmHg 66%
    16:00 +13°C° 0.1 mm 6 mps 730 mmHg 61%
    17:00 +12°C° 0 mm 5 mps 730 mmHg 65%
    18:00 +10°C° 0 mm 5 mps 730 mmHg 70%
    19:00 +10°C° 0 mm 4 mps 729 mmHg 75%
    20:00 +9°C° 0 mm 3 mps 730 mmHg 78%
    21:00 +7°C° 0 mm 3 mps 730 mmHg 81%
    22:00 +6°C° 0 mm 2 mps 730 mmHg 84%
    23:00 +5°C° 0 mm 2 mps 730 mmHg 87%

    30 May, Saturday

    Time Temperature Precipitation Wind Pressure Humidity
    00:00 +5°C° 0 mm 2 mps 729 mmHg 89%
    01:00 +4°C° 0 mm 2 mps 729 mmHg 92%
    02:00 +3°C° 0 mm 2 mps 729 mmHg 92%
    03:00 +3°C° 0 mm 2 mps 729 mmHg 93%
    04:00 +3°C° 0 mm 2 mps 729 mmHg 93%
    05:00 +3°C° 0 mm 3 mps 729 mmHg 87%
    06:00 +5°C° 0 mm 3 mps 729 mmHg 80%
    07:00 +7°C° 0 mm 4 mps 729 mmHg 73%
    08:00 +8°C° 0 mm 5 mps 729 mmHg 70%
    09:00 +9°C° 0 mm 5 mps 729 mmHg 66%
    10:00 +12°C° 0 mm 5 mps 728 mmHg 63%
    11:00 +12°C° 0 mm 5 mps 728 mmHg 61%
    12:00 +13°C° 0 mm 5 mps 728 mmHg 59%
    13:00 +14°C° 0 mm 5 mps 727 mmHg 57%
    14:00 +14°C° 0 mm 5 mps 727 mmHg 59%
    15:00 +13°C° 0 mm 5 mps 727 mmHg 60%
    16:00 +13°C° 0 mm 4 mps 727 mmHg 62%
    17:00 +12°C° 0 mm 4 mps 727 mmHg 69%
    18:00 +11°C° 0 mm 3 mps 726 mmHg 75%
    19:00 +10°C° 0 mm 2 mps 726 mmHg 82%
    20:00 +9°C° 0 mm 2 mps 726 mmHg 84%
    21:00 +9°C° 0 mm 2 mps 726 mmHg 86%
    22:00 +8°C° 0 mm 2 mps 726 mmHg 88%
    23:00 +8°C° 0 mm 2 mps 726 mmHg 89%

    31 May, Sunday

    Time Temperature Precipitation Wind Pressure Humidity
    00:00 +8°C° 0 mm 2 mps 726 mmHg 89%
    01:00 +7°C° 0 mm 2 mps 725 mmHg 89%
    02:00 +7°C° 0 mm 2 mps 725 mmHg 90%
    03:00 +7°C° 0 mm 2 mps 725 mmHg 90%
    04:00 +7°C° 0 mm 2 mps 725 mmHg 90%
    05:00 +8°C° 0 mm 2 mps 725 mmHg 89%
    06:00 +9°C° 0 mm 2 mps 725 mmHg 88%
    07:00 +9°C° 0 mm 2 mps 725 mmHg 87%
    08:00 +10°C° 0.2 mm 2 mps 725 mmHg 88%
    09:00 +10°C° 0.2 mm 2 mps 725 mmHg 89%
    10:00 +10°C° 0.2 mm 2 mps 725 mmHg 90%
    11:00 +12°C° 0.1 mm 2 mps 726 mmHg 90%
    12:00 +12°C° 0.1 mm 2 mps 726 mmHg 90%
    13:00 +12°C° 0.1 mm 2 mps 726 mmHg 90%
    14:00 +12°C° 0.1 mm 2 mps 726 mmHg 91%
    15:00 +12°C° 0.1 mm 2 mps 726 mmHg 92%
    16:00 +12°C° 0.1 mm 2 mps 726 mmHg 93%
    17:00 +12°C° 0.1 mm 2 mps 726 mmHg 93%
    18:00 +12°C° 0.1 mm 2 mps 726 mmHg 93%
    19:00 +12°C° 0.1 mm 2 mps 726 mmHg 93%
    20:00 +10°C° 0 mm 2 mps 726 mmHg 94%
    21:00 +9°C° 0 mm 2 mps 726 mmHg 95%
    22:00 +9°C° 0 mm 2 mps 726 mmHg 96%
    23:00 +9°C° 0.1 mm 2 mps 726 mmHg 95%

    1 June, Monday

    Time Temperature Precipitation Wind Pressure Humidity
    00:00 +9°C° 0.1 mm 2 mps 726 mmHg 95%
    01:00 +9°C° 0.1 mm 2 mps 726 mmHg 95%
    02:00 +9°C° 0 mm 2 mps 726 mmHg 96%
    03:00 +9°C° 0 mm 2 mps 726 mmHg 96%
    04:00 +10°C° 0 mm 2 mps 726 mmHg 97%
    05:00 +10°C° 0.1 mm 2 mps 726 mmHg 97%
    06:00 +12°C° 0.1 mm 2 mps 726 mmHg 97%
    07:00 +12°C° 0.1 mm 2 mps 727 mmHg 97%
    08:00 +13°C° 0.1 mm 2 mps 727 mmHg 96%
    09:00 +13°C° 0.1 mm 3 mps 727 mmHg 95%
    10:00 +13°C° 0.1 mm 3 mps 727 mmHg 94%
    11:00 +14°C° 0.1 mm 3 mps 727 mmHg 92%
    12:00 +16°C° 0.1 mm 3 mps 727 mmHg 90%
    13:00 +17°C° 0.1 mm 3 mps 727 mmHg 87%
    14:00 +18°C° 0.5 mm 4 mps 727 mmHg 85%
    15:00 +18°C° 0.5 mm 4 mps 727 mmHg 83%
    16:00 +19°C° 0.5 mm 5 mps 726 mmHg 80%
    17:00 +17°C° 0.1 mm 5 mps 726 mmHg 82%
    18:00 +17°C° 0.1 mm 4 mps 726 mmHg 84%
    19:00 +15°C° 0.1 mm 4 mps 726 mmHg 85%
    20:00 +14°C° 0 mm 3 mps 727 mmHg 88%
    21:00 +12°C° 0 mm 3 mps 727 mmHg 91%
    22:00 +11°C° 0 mm 3 mps 727 mmHg 93%
    23:00 +10°C° 0 mm 2 mps 727 mmHg 93%
    Show more